DW2851 Weather Reports


Display with metric or nautical units.
time (UTC)temp
F
wind
direction
speed
MPH
gust
MPH
rain 1hr
in
rain 24hr
in
rain mn
in
humidity
%
barometer
mb
20180526100259 59 71 7.0 12.0 0.00 0.41 0.00 75 1025.9
20180526094757 58 58 5.0 13.0 0.00 0.46 0.00 77 1025.9
20180526093255 57 58 8.0 14.0 0.00 0.46 0.00 78 1025.8
20180526091753 57 67 6.0 13.0 0.00 0.46 0.00 80 1025.7
20180526090251 57 42 7.0 14.0 0.00 0.46 0.00 80 1025.8
20180526084754 57 49 6.0 12.0 0.00 0.48 0.00 80 1025.6
20180526083251 57 67 7.0 16.0 0.00 0.48 0.00 80 1025.6
20180526081748 58 46 5.0 16.0 0.00 0.48 0.00 78 1025.5
20180526080247 58 44 7.0 13.0 0.00 0.48 0.00 79 1025.3
20180526074745 58 50 5.0 13.0 0.00 0.48 0.00 79 1025.3
20180526073244 58 42 8.0 15.0 0.00 0.48 0.00 77 1025.2
20180526071744 59 42 4.0 13.0 0.00 0.48 0.00 80 1025.1
20180526070237 57 57 8.0 14.0 0.00 0.48 0.00 80 1025.0
20180526064732 56 62 7.0 12.0 0.00 0.48 0.00 83 1024.8
20180526063230 55 43 5.0 11.0 0.00 0.48 0.00 86 1024.8
20180526061726 54 38 3.0 10.0 0.00 0.48 0.00 88 1024.8
20180526060221 53 68 5.0 10.0 0.00 0.48 0.00 88 1024.6
20180526054719 53 54 6.0 11.0 0.00 0.48 0.00 89 1024.4
20180526053220 52 88 2.0 6.0 0.00 0.48 0.00 91 1024.3
20180526051712 52 100 1.0 4.0 0.00 0.48 0.00 91 1024.1
20180526050214 51 104 2.0 6.0 0.00 0.48 0.00 91 1024.0
20180526044711 51 107 1.0 4.0 0.00 0.48 0.00 92 1024.1
20180526043206 50 113 0.0 4.0 0.00 0.48 0.00 92 1024.0
20180526041802 50 103 1.0 6.0 0.00 0.48 0.00 92 1023.9
20180526040201 50 108 3.0 6.0 0.00 0.48 0.00 92 1023.9
20180526034657 50 108 2.0 6.0 0.00 0.48 0.00 91 1023.8
20180526033157 50 89 2.0 8.0 0.00 0.48 0.00 92 1023.8
20180526031658 50 100 3.0 8.0 0.00 0.48 0.00 92 1023.8
20180526030154 51 98 3.0 8.0 0.00 0.48 0.00 92 1023.7
20180526024650 51 93 3.0 9.0 0.00 0.48 0.00 92 1023.7
20180526023149 51 54 5.0 12.0 0.00 0.48 0.00 92 1023.6
20180526021649 52 36 5.0 16.0 0.00 0.48 0.00 93 1023.6
20180526020145 52 44 5.0 14.0 0.00 0.48 0.00 93 1023.4
20180526014643 52 52 5.0 15.0 0.00 0.48 0.00 93 1023.3
20180526013143 52 34 4.0 14.0 0.00 0.48 0.00 94 1023.3
20180526011643 53 23 4.0 13.0 0.00 0.48 0.00 94 1023.3
20180526010138 53 24 7.0 14.0 0.00 0.48 0.00 95 1023.3
20180526004637 53 29 6.0 14.0 0.00 0.48 0.00 95 1023.5
20180526003135 53 17 5.0 12.0 0.00 0.48 0.00 95 1023.5
20180526001634 53 26 4.0 13.0 0.00 0.48 0.00 95 1023.4
20180526000134 53 13 5.0 11.0 0.00 0.48 0.00 95 1023.3
20180525234628 53 44 6.0 13.0 0.00 0.48 0.00 96 1023.5
20180525233124 53 51 2.0 7.0 0.00 0.48 0.00 96 1023.6
20180525231626 53 85 4.0 8.0 0.00 0.48 0.00 96 1023.7
20180525230120 52 103 0.0 4.0 0.00 0.48 0.00 96 1023.8
20180525224621 52 127 0.0 4.0 0.00 0.48 0.48 96 1023.7
20180525223119 52 130 1.0 3.0 0.00 0.48 0.48 96 1023.8
20180525221618 52 44 0.0 0.0 0.00 0.48 0.48 96 1023.9
20180525220118 52 44 1.0 5.0 0.00 0.48 0.48 96 1023.9
20180525214616 52 34 0.0 3.0 0.00 0.48 0.48 96 1023.8
20180525213118 52 65 2.0 5.0 0.00 0.48 0.48 96 1023.7
20180525211615 52 77 1.0 5.0 0.00 0.48 0.48 96 1023.6
20180525210112 52 45 1.0 5.0 0.00 0.48 0.48 96 1023.5
20180525204612 52 63 3.0 6.0 0.00 0.48 0.48 96 1023.6
20180525203112 52 15 3.0 8.0 0.00 0.48 0.48 96 1023.5
20180525201608 52 40 4.0 8.0 0.01 0.48 0.48 96 1023.2
20180525200207 52 69 3.0 6.0 0.01 0.48 0.48 96 1023.1
20180525194605 52 49 1.0 9.0 0.01 0.48 0.48 96 1023.0
20180525193104 52 28 2.0 8.0 0.01 0.48 0.48 96 1022.7
20180525191603 52 72 3.0 8.0 0.00 0.47 0.47 96 1022.8
20180525190101 52 39 3.0 9.0 0.01 0.47 0.47 96 1022.7
20180525184602 53 58 3.0 9.0 0.02 0.47 0.47 95 1022.6
20180525183100 53 32 3.0 11.0 0.02 0.47 0.47 96 1022.4
20180525181600 53 31 5.0 9.0 0.03 0.47 0.47 96 1022.4
20180525180057 53 42 3.0 11.0 0.02 0.46 0.46 95 1022.4
20180525174558 53 58 5.0 12.0 0.02 0.46 0.46 95 1022.2
20180525173057 53 9 6.0 13.0 0.03 0.46 0.46 95 1022.2
20180525171555 53 30 6.0 12.0 0.02 0.44 0.44 95 1022.1
20180525170054 53 30 5.0 12.0 0.02 0.44 0.44 95 1022.1
20180525164554 54 13 6.0 15.0 0.03 0.44 0.44 95 1022.1
20180525163056 54 22 5.0 12.0 0.02 0.43 0.43 96 1021.9
20180525161554 53 78 4.0 11.0 0.01 0.42 0.42 96 1021.9
20180525160052 53 40 4.0 12.0 0.01 0.42 0.42 96 1021.9
20180525154550 53 47 3.0 9.0 0.00 0.41 0.41 96 1021.9
20180525153049 53 30 4.0 11.0 0.00 0.41 0.41 95 1021.9
20180525151551 53 62 6.0 12.0 0.00 0.41 0.41 95 1022.0
20180525150049 53 49 5.0 11.0 0.00 0.41 0.41 95 1022.1
20180525144548 53 60 6.0 12.0 0.00 0.41 0.41 96 1022.1
20180525143047 53 49 3.0 10.0 0.00 0.41 0.41 96 1021.9
20180525141549 53 90 4.0 11.0 0.00 0.41 0.41 95 1021.9
20180525140048 53 90 6.0 10.0 0.00 0.41 0.41 95 1022.0
20180525134546 53 56 3.0 11.0 0.00 0.41 0.41 96 1022.0
20180525133044 53 55 1.0 6.0 0.00 0.41 0.41 95 1021.9
20180525131545 53 57 1.0 4.0 0.00 0.41 0.41 95 1021.9
20180525130042 52 74 0.0 8.0 0.04 0.41 0.41 95 1022.1
20180525124541 53 61 5.0 12.0 0.05 0.41 0.41 95 1022.0
20180525123042 52 69 3.0 10.0 0.07 0.41 0.41 95 1022.0
20180525121543 53 71 3.0 9.0 0.13 0.40 0.40 95 1021.8
20180525120038 53 120 1.0 7.0 0.13 0.37 0.37 94 1021.7
20180525114538 53 103 0.0 7.0 0.18 0.36 0.36 94 1021.8
20180525113141 53 36 2.0 8.0 0.25 0.34 0.34 94 1021.7
20180525111539 53 24 5.0 10.0 0.20 0.27 0.27 94 1021.7
20180525110035 53 63 0.0 2.0 0.17 0.24 0.24 93 1021.7
20180525104536 53 5 2.0 6.0 0.11 0.17 0.17 93 1021.7
20180525103034 54 42 4.0 14.0 0.04 0.09 0.09 92 1021.8
20180525101533 54 10 4.0 10.0 0.05 0.07 0.07 93 1021.7